Date,Installs,Update checks
2022-10-09,2,0
2022-10-10,32,4
2022-10-11,8,16
2022-10-12,11,16
2022-10-13,9,15
2022-10-14,6,18
2022-10-15,11,17
2022-10-16,5,21
2022-10-17,5,25
2022-10-18,5,22
2022-10-19,5,19
2022-10-20,6,26
2022-10-21,14,24
2022-10-22,10,29
2022-10-23,4,31
2022-10-24,12,33
2022-10-25,9,40
2022-10-26,5,39
2022-10-27,2,31
2022-10-28,6,40
2022-10-29,6,38
2022-10-30,4,40
2022-10-31,3,32
2022-11-01,4,36
2022-11-02,2,37
2022-11-03,4,45
2022-11-04,4,35
2022-11-05,3,40
2022-11-06,5,39
2022-11-07,1,35
2022-11-08,2,41
2022-11-09,0,44
2022-11-10,5,40
2022-11-11,4,44
2022-11-12,16,39
2022-11-13,3,40
2022-11-14,3,49
2022-11-15,3,44
2022-11-16,6,41
2022-11-17,7,46
2022-11-18,4,46
2022-11-19,3,50
2022-11-20,0,43
2022-11-21,5,56
2022-11-22,5,57
2022-11-23,2,56
2022-11-24,6,50
2022-11-25,6,52
2022-11-26,6,52
2022-11-27,6,56
2022-11-28,3,56
2022-11-29,2,63
2022-11-30,5,60
2022-12-01,4,51
2022-12-02,2,42
2022-12-03,2,51
2022-12-04,5,57
2022-12-05,4,61
2022-12-06,5,64
2022-12-07,4,47
2022-12-08,6,57
2022-12-09,2,59
2022-12-10,169,76
2022-12-11,66,95
2022-12-12,29,111
2022-12-13,18,97
2022-12-14,17,105
2022-12-15,13,109
2022-12-16,9,95
2022-12-17,6,95
2022-12-18,9,81
2022-12-19,5,99
2022-12-20,9,94
2022-12-21,5,82
2022-12-22,8,92
2022-12-23,1,81
2022-12-24,2,82
2022-12-25,2,96
2022-12-26,3,82
2022-12-27,4,90
2022-12-28,3,99
2022-12-29,4,100
2022-12-30,5,100
2022-12-31,3,85
2023-01-01,1,83
2023-01-02,3,102
2023-01-03,3,112
2023-01-04,2,110
2023-01-05,6,112
2023-01-06,9,106
2023-01-07,5,97
2023-01-08,5,105
2023-01-09,6,116
2023-01-10,8,121
2023-01-11,3,108
2023-01-12,6,109
2023-01-13,5,109
2023-01-14,1,107
2023-01-15,7,113
2023-01-16,4,102
2023-01-17,2,109
2023-01-18,9,95
2023-01-19,3,104
2023-01-20,2,97
2023-01-21,1,76
2023-01-22,7,81
2023-01-23,1,87
2023-01-24,5,87
2023-01-25,2,95
2023-01-26,5,100
2023-01-27,4,99
2023-01-28,5,112
2023-01-29,5,114
2023-01-30,4,121
2023-01-31,9,125
2023-02-01,5,121
2023-02-02,9,133
2023-02-03,5,126
2023-02-04,9,119
2023-02-05,3,118
2023-02-06,20,131
2023-02-07,8,133
2023-02-08,2,132
2023-02-09,3,142
2023-02-10,3,139
2023-02-11,8,112
2023-02-12,6,119
2023-02-13,3,134
2023-02-14,1,124
2023-02-15,1,127
2023-02-16,2,124
2023-02-17,2,130
2023-02-18,7,117
2023-02-19,7,112
2023-02-20,4,133
2023-02-21,1,125
2023-02-22,1,129
2023-02-23,2,127
2023-02-24,1,128
2023-02-25,2,113
2023-02-26,3,103
2023-02-27,5,127
2023-02-28,5,123
2023-03-01,2,120
2023-03-02,2,128
2023-03-03,3,123
2023-03-04,3,110
2023-03-05,3,97
2023-03-06,1,118
2023-03-07,3,122
2023-03-08,2,108
2023-03-09,5,119
2023-03-10,2,109
2023-03-11,3,98
2023-03-12,1,91
2023-03-13,2,117
2023-03-14,0,116
2023-03-15,2,114
2023-03-16,1,119
2023-03-17,3,121
2023-03-18,3,99
2023-03-19,0,95
2023-03-20,1,115
2023-03-21,3,105
2023-03-22,5,116
2023-03-23,1,106
2023-03-24,1,111
2023-03-25,4,101
2023-03-26,3,103
2023-03-27,3,109
2023-03-28,4,109
2023-03-29,1,86
2023-03-30,2,108
2023-03-31,4,110
2023-04-01,3,86
2023-04-02,6,94
2023-04-03,2,122
2023-04-04,6,111
2023-04-05,2,92
2023-04-06,2,112
2023-04-07,0,99
2023-04-08,2,95
2023-04-09,3,91
2023-04-10,1,106
2023-04-11,0,102
2023-04-12,2,115
2023-04-13,0,95
2023-04-14,0,117
2023-04-15,0,90
2023-04-16,2,95
2023-04-17,1,101
2023-04-18,1,107
2023-04-19,1,97
2023-04-20,5,106
2023-04-21,2,107
2023-04-22,3,108
2023-04-23,1,103
2023-04-24,3,101
2023-04-25,2,114
2023-04-26,3,104
2023-04-27,1,101
2023-04-28,2,100
2023-04-29,3,91
2023-04-30,5,90
2023-05-01,4,89
2023-05-02,0,94
2023-05-03,0,107
2023-05-04,1,122
2023-05-05,0,108
2023-05-06,3,106
2023-05-07,3,102
2023-05-08,0,108
2023-05-09,2,115
2023-05-10,0,104
2023-05-11,1,109
2023-05-12,1,103
2023-05-13,3,105
2023-05-14,2,97
2023-05-15,0,111
2023-05-16,1,114
2023-05-17,3,105
2023-05-18,0,94
2023-05-19,0,109
2023-05-20,1,93
2023-05-21,1,92
2023-05-22,0,120
2023-05-23,1,112
2023-05-24,0,106
2023-05-25,0,99
2023-05-26,0,97
2023-05-27,0,94
2023-05-28,5,87
2023-05-29,1,102
2023-05-30,3,109
2023-05-31,0,89
2023-06-01,1,95
2023-06-02,4,104
2023-06-03,0,90
2023-06-04,0,91
2023-06-05,0,95
2023-06-06,1,103
2023-06-07,2,95
2023-06-08,2,107
2023-06-09,2,100
2023-06-10,4,90
2023-06-11,1,94
2023-06-12,3,105
2023-06-13,1,110
2023-06-14,3,98
2023-06-15,4,91
2023-06-16,4,111
2023-06-17,5,92
2023-06-18,3,98
2023-06-19,1,100
2023-06-20,1,95
2023-06-21,5,104
2023-06-22,3,79
2023-06-23,1,91
2023-06-24,4,97
2023-06-25,4,100
2023-06-26,4,92
2023-06-27,2,112
2023-06-28,0,120
2023-06-29,1,111
2023-06-30,1,114
2023-07-01,3,89
2023-07-02,2,101
2023-07-03,3,109
2023-07-04,0,104
2023-07-05,3,114
2023-07-06,0,119
2023-07-07,1,107
2023-07-08,2,98
2023-07-09,2,100
2023-07-10,3,111
2023-07-11,1,102
2023-07-12,2,105
2023-07-13,3,110
2023-07-14,1,107
2023-07-15,1,98
2023-07-16,4,105
2023-07-17,0,96
2023-07-18,2,109
2023-07-19,1,95
2023-07-20,1,106
2023-07-21,4,89
2023-07-22,2,89
2023-07-23,6,88
2023-07-24,1,101
2023-07-25,3,98
2023-07-26,3,107
2023-07-27,1,102
2023-07-28,1,108
2023-07-29,3,103
2023-07-30,2,97
2023-07-31,0,109
2023-08-01,2,100
2023-08-02,0,104
2023-08-03,3,99
2023-08-04,5,96
2023-08-05,3,97
2023-08-06,2,81
2023-08-07,2,108
2023-08-08,3,117
2023-08-09,4,119
2023-08-10,5,107
2023-08-11,3,105
2023-08-12,5,99
2023-08-13,4,100
2023-08-14,2,103
2023-08-15,3,114
2023-08-16,9,112
2023-08-17,20,115
2023-08-18,9,109
2023-08-19,10,98
2023-08-20,3,100
2023-08-21,4,120
2023-08-22,6,119
2023-08-23,3,122
2023-08-24,1,134
2023-08-25,9,124
2023-08-26,13,112
2023-08-27,4,110
2023-08-28,2,112
2023-08-29,4,119
2023-08-30,1,112
2023-08-31,2,122
2023-09-01,6,124
2023-09-02,6,105
2023-09-03,3,100
2023-09-04,4,110
2023-09-05,4,117
2023-09-06,1,118
2023-09-07,4,109
2023-09-08,7,123
2023-09-09,2,111
2023-09-10,4,97
2023-09-11,2,125
2023-09-12,1,129
2023-09-13,0,125
2023-09-14,2,130
2023-09-15,2,117
2023-09-16,2,112
2023-09-17,5,100
2023-09-18,3,124
2023-09-19,5,113
2023-09-20,2,112
2023-09-21,3,111
2023-09-22,2,115
2023-09-23,3,105
2023-09-24,3,87
2023-09-25,1,106
2023-09-26,2,109
2023-09-27,1,125
2023-09-28,2,110
2023-09-29,3,100
2023-09-30,0,90
2023-10-01,3,101
2023-10-02,2,92
2023-10-03,0,97
2023-10-04,1,105
2023-10-05,2,102
2023-10-06,1,103
2023-10-07,3,109
2023-10-08,3,111
2023-10-09,0,113
2023-10-10,2,114
2023-10-11,1,121
2023-10-12,1,112
2023-10-13,4,124
2023-10-14,5,102
2023-10-15,2,109
2023-10-16,1,113
2023-10-17,1,114
2023-10-18,3,114
2023-10-19,1,112
2023-10-20,3,104
2023-10-21,3,110
2023-10-22,1,107
2023-10-23,1,116
2023-10-24,2,126
2023-10-25,1,115
2023-10-26,1,111
2023-10-27,0,121
2023-10-28,1,100
2023-10-29,3,91
2023-10-30,4,123
2023-10-31,2,112
2023-11-01,0,110
2023-11-02,2,120
2023-11-03,2,117
2023-11-04,2,106
2023-11-05,1,109
2023-11-06,1,110
2023-11-07,6,103
2023-11-08,2,119
2023-11-09,6,111
2023-11-10,2,117
2023-11-11,3,100
2023-11-12,2,106
2023-11-13,4,114
2023-11-14,0,117
2023-11-15,2,108
2023-11-16,2,113
2023-11-17,0,92
2023-11-18,1,98
2023-11-19,1,104
2023-11-20,1,115
2023-11-21,1,99
2023-11-22,0,113
2023-11-23,1,101
2023-11-24,3,124
2023-11-25,4,98
2023-11-26,1,104
2023-11-27,0,99
2023-11-28,0,117
2023-11-29,3,120
2023-11-30,2,109
2023-12-01,0,113
2023-12-02,2,113
2023-12-03,1,96
2023-12-04,0,107
2023-12-05,1,55
2023-12-06,3,49
2023-12-07,1,43
2023-12-08,3,55
2023-12-09,3,42
2023-12-10,3,46
2023-12-11,2,46
2023-12-12,1,43
2023-12-13,0,44
2023-12-14,3,44
2023-12-15,0,42
2023-12-16,1,30
2023-12-17,0,38
2023-12-18,0,45
2023-12-19,3,46
2023-12-20,0,37
2023-12-21,0,32
2023-12-22,3,54
2023-12-23,1,30
2023-12-24,0,33
2023-12-25,1,37
2023-12-26,0,38
2023-12-27,4,49
2023-12-28,1,38
2023-12-29,0,46
2023-12-30,2,31
2023-12-31,1,35
2024-01-01,0,42
2024-01-02,1,34
2024-01-03,0,47
2024-01-04,0,51
2024-01-05,1,30
2024-01-06,2,40
2024-01-07,1,47
2024-01-08,2,54
2024-01-09,2,39
2024-01-10,0,43
2024-01-11,1,46
2024-01-12,0,42
2024-01-13,1,49
2024-01-14,1,36
2024-01-15,2,55
2024-01-16,0,43
2024-01-17,1,35
2024-01-18,1,49
2024-01-19,2,44
2024-01-20,2,40
2024-01-21,0,39
2024-01-22,2,47
2024-01-23,5,77
2024-01-24,2,75
2024-01-25,2,69
2024-01-26,3,63
2024-01-27,1,69
2024-01-28,1,64
2024-01-29,2,78
2024-01-30,0,73
2024-01-31,1,66
2024-02-01,1,63
2024-02-02,3,58
2024-02-03,3,61
2024-02-04,2,71
2024-02-05,1,52
2024-02-06,0,53
2024-02-07,0,56
2024-02-08,3,49
2024-02-09,1,48
2024-02-10,2,41
2024-02-11,0,42
2024-02-12,3,48
2024-02-13,3,44
2024-02-14,1,53
2024-02-15,3,49
2024-02-16,4,58
2024-02-17,3,67
2024-02-18,1,73
2024-02-19,0,76
2024-02-20,0,82
2024-02-21,1,67
2024-02-22,0,76
2024-02-23,2,81
2024-02-24,4,59
2024-02-25,2,68
2024-02-26,0,84
2024-02-27,1,77
2024-02-28,0,76
2024-02-29,2,79
2024-03-01,0,71
2024-03-02,0,64
2024-03-03,3,60
2024-03-04,0,69
2024-03-05,1,80
2024-03-06,2,60
2024-03-07,0,71
2024-03-08,1,69
2024-03-09,1,65
2024-03-10,0,62
2024-03-11,3,80
2024-03-12,1,75
2024-03-13,1,76
2024-03-14,1,84
2024-03-15,0,62
2024-03-16,0,66
2024-03-17,1,67
2024-03-18,2,72
2024-03-19,0,79
2024-03-20,1,80
2024-03-21,0,73
2024-03-22,0,68
2024-03-23,0,70
2024-03-24,1,65
2024-03-25,0,88
2024-03-26,2,69
2024-03-27,2,60
2024-03-28,0,61
2024-03-29,1,59
2024-03-30,0,64
2024-03-31,0,65
2024-04-01,3,62
2024-04-02,1,68
2024-04-03,3,59
2024-04-04,4,59
2024-04-05,0,63
2024-04-06,2,57
2024-04-07,1,77
2024-04-08,1,76
2024-04-09,0,72
2024-04-10,1,72
2024-04-11,1,72
2024-04-12,1,78
2024-04-13,1,73
2024-04-14,1,54
2024-04-15,0,67
2024-04-16,4,71
2024-04-17,2,64
2024-04-18,1,70
2024-04-19,1,71
2024-04-20,1,63
2024-04-21,6,63
2024-04-22,0,61
2024-04-23,1,56
2024-04-24,0,68
2024-04-25,3,60
2024-04-26,1,56
2024-04-27,2,44
2024-04-28,1,52
2024-04-29,0,46
2024-04-30,0,45
2024-05-01,2,38
2024-05-02,3,37
2024-05-03,1,38
2024-05-04,1,39
2024-05-05,2,45
2024-05-06,1,51
2024-05-07,1,44
2024-05-08,0,41
2024-05-09,1,51
2024-05-10,1,44
2024-05-11,3,65
2024-05-12,6,46
2024-05-13,1,51
2024-05-14,5,54
2024-05-15,1,48
2024-05-16,0,44
2024-05-17,0,49
2024-05-18,3,42
2024-05-19,3,51
2024-05-20,7,47
2024-05-21,1,48
2024-05-22,0,40
2024-05-23,1,50
2024-05-24,0,52
2024-05-25,0,40
2024-05-26,4,55
2024-05-27,3,50
2024-05-28,2,47
2024-05-29,2,43
2024-05-30,0,43
2024-05-31,2,52
2024-06-01,4,46
2024-06-02,0,45
2024-06-03,2,44
2024-06-04,0,46
2024-06-05,0,46
2024-06-06,0,31
